Regional Weather Roundup
Issued by NWS Jackson, KY

Home | Current Version | Previous Version | Graphics & Text | Print | Product List | Glossary On
Versions: 1 2 3 4 5 6 7 8 9 10 11 12 13 14 15 16 17 18 19 20 21 22 23 24 25 26 27
000
ASUS43 KJKL 231310
RWRJKL

EAST KENTUCKY HOURLY WEATHER ROUNDUP
NATIONAL WEATHER SERVICE JACKSON KY
900 AM EDT MON OCT 23 2017

NOTE: "FAIR" INDICATES FEW OR NO CLOUDS BELOW 12,000 FEET WITH
NO SIGNIFICANT WEATHER AND/OR OBSTRUCTIONS TO VISIBILITY.

* THESE REPORTS ARE NOT UNDER NWS QUALITY CONTROL AND MAY NOT
  REPORT WEATHER SUCH AS PRECIPITATION AND FOG.

KYZ079-080-083-085-087-088-110-112-115-119-120-231400
...EASTERN KENTUCKY...

CITY           SKY/WX    TMP DP  RH WIND       PRES   REMARKS
JACKSON        CLOUDY    64  57  78 VRB6      29.89F
LONDON         LGT RAIN  64  60  87 SE7       29.86S
SOMERSET*      HVY RAIN  61  61 100 W14G28    29.88R
MONTICELLO*    HVY RAIN  61  60  97 NW18      29.89R FOG
WILLIAMSBURG*  CLOUDY    64  63  94 SE7       29.83F
MIDDLESBORO*   RAIN      65  63  94 SE6       29.88F
HARLAN APT*    CLOUDY    63  59  88 E5        29.91S
PIKE CO APT*   RAIN      63  63 100 SE10      29.95F
BIG SANDY APT* LGT RAIN  63  62  97 SE14      29.93F
MOREHEAD APT*  LGT RAIN  64  57  77 VRB7G13   29.88F
$$

KYZ035-036-041-042-044-050-067-078-099-231400
...CENTRAL KENTUCKY...

CITY           SKY/WX    TMP DP  RH WIND       PRES   REMARKS
MT STERLING*   LGT RAIN  63  59  88 SE8       29.87F
FLEMING/MASON* RAIN      65  58  79 SE14      29.87F
DANVILLE*      HVY RAIN  59  55  88 N17G26    29.89R
LEXINGTON      HVY RAIN  62  59  90 W23G33    29.86R FOG
FRANKFORT      RAIN      61  57  87 W10G20    29.85R FOG
LOUISVILLE     LGT RAIN  64  62  93 S7        29.83S
LEBANON*       HVY RAIN  59  59 100 SW3       29.89R
GLASGOW*       LGT RAIN  60  60 100 SE6       29.85S
BOWLING GREEN  PTSUNNY   63  62  97 NE10      29.79F
$$

KYZ091>093-OHZ055-061-077-WVZ005-015-034-035-042-231400
...SOUTHERN OHIO/WEST VIRGINIA...

CITY           SKY/WX    TMP DP  RH WIND       PRES   REMARKS
COVINGTON      LGT RAIN  63  59  87 SE12      29.81F
COLUMBUS       CLOUDY    64  54  69 SE13      29.91F
DAYTON         LGT RAIN  62  57  83 SE14      29.86F
WILMINGTON     LGT RAIN  62  56  80 SE9       29.86F
HUNTINGTON     LGT RAIN  63  56  78 S7        29.91F
CHARLESTON     LGT RAIN  64  59  83 E12       29.99S
PINEVILLE*     HVY RAIN  62  60  92 MISG      30.08F
BECKLEY        LGT RAIN  59  56  89 SE15G26   30.06F FOG
BLUEFIELD      LGT RAIN  58  56  93 SE9G29    30.08F FOG
LOGAN CO APT*  LGT RAIN  63  59  88 SE9G20    29.99F
$$

VAZ002-007-008-TNZ017-027-036-066-071-231400
...SOUTHWEST VIRGINIA/EAST TENNESSEE...

CITY           SKY/WX    TMP DP  RH WIND       PRES   REMARKS
WISE*          CLOUDY    61  61 100 SE6       30.01R
JONESVILLE*    RAIN      63  63 100 NE5       29.95F
ABINGDON*      PTSUNNY   62  61  96 E10       30.01S
BRISTOL        CLOUDY    63  62  97 E5        29.96F
MORRISTOWN*    CLOUDY    66  63  88 SE10      29.91S
SEVIERVILLE*   PTSUNNY   66  63  88 CALM      29.86F
KNOXVILLE      RAIN      64  64 100 NE8       29.84F
LAFOLLETTE*    CLOUDY    61  59  94 CALM      29.90F FOG
OAK RIDGE      LGT RAIN  62  62 100 E3        29.86F
CROSSVILLE     HVY RAIN  59  58  96 W6        29.90R VSB 1
NASHVILLE      LGT RAIN  62  60  93 SW7       29.86R FOG
$$

...KEY TO REMARKS...
VSB - VISIBILITY IN MILES
WCI - WIND CHILL INDEX
HX  - HEAT INDEX

$$




USA.gov is the U.S. government's official web portal to all federal, state and local government web resources and services.